Find Echostar XXV

NORAD ID: 68126 Int'l Des: 2026-045 Owner: ECHOC Country: US operational
MEOELLIPTICALHEO_ELLIPTICAL

当前视图

正在加载3D地球...

About Echostar XXV

Echostar XXV (NORAD 68126) is a satellite launched Mar 10, 2026 by ECHOC of US. It operates in MEO, ELLIPTICAL, HEO_ELLIPTICAL orbit with a mass of 6800.00 kg.

即将过境

Passes for default location (London). Set your location on the main map for personalized predictions.

高度历史

Loading altitude history...

两行轨道根数

1 68126U 26045A 26163.24303800 -.00000041 00000-0 00000-0 0 9994
2 68126 0.0140 349.5323 0001417 100.8881 147.6528 1.00270139 947
Epoch: Jun 12, 2026 • Age: 9 hours

当前状态

高度 35785.9 km
速度 3.07 km/s
星下点 0.02°N, 110.02°W
发射日期 Mar 10, 2026
运行时间 0.2 years
类型 other

技术详情

分类 Payload
质量 6800.00 kg
干质量 2929.00 kg
总质量 6800.00 kg
长度 6.00 m
直径 2.80 m
跨度 31.00 m
形状 Box+2 panels
制造商 LANT
平台类型 L-1300TM
阶段状态 In Orbit
所有者/国家 ECHOC/US

Most Searched